Weather History for Fremont, MI

Change the Weather History Date:

Friday, January 4, 2013

  Actual Average (KMKG) Record (KMKG)
Temperature  
Mean Temperature 27 °F 26 °F  
Max Temperature 30 °F 32 °F 61 °F (1997)
Min Temperature 23 °F 21 °F -6 °F (1981)
Degree Days  
Heating Degree Days 38 39  
Month to date heating degree days 154  
Since 1 July heating degree days 2600  
Cooling Degree Days 0 0  
Month to date cooling degree days 0  
Year to date cooling degree days 0  
Moisture  
Dew Point 22 °F    
Average Humidity 81    
Maximum Humidity 96    
Minimum Humidity 72    
Precipitation  
Precipitation 0.00 in 0.07 in 0.97 in (1993)
Month to date precipitation 0.29  
Year to date precipitation 0.29  
Snow  
Snow 0.00 in 0.90 in 9.20 in (1999)
Month to date snowfall 3.5  
Since 1 July snowfall 38.6  
Snow Depth -    
Sea Level Pressure  
Sea Level Pressure 30.05 in    
Wind  
Wind Speed 11 mph (SW)    
Max Wind Speed 17 mph    
Max Gust Speed 29 mph    
Visibility 10 miles    
Events      
T = Trace of Precipitation, MM = Missing Value Source: NWS Daily Summary

Daily Weather History Graph

Daily Weather History Graph

Search for Another Location

Airport:

Trip Planner

Search our weather history database for the weather conditions in past years. The results will help you decide how hot, cold, wet, or windy it might be!

Date:

Astronomy

Jan. 04, 2013 Rise Set
Actual Time 8:16 AM EST 5:21 PM EST
Civil Twilight 7:44 AM EST 5:54 PM EST
Nautical Twilight 7:08 AM EST 6:29 PM EST
Astronomical Twilight 6:33 AM EST 7:04 PM EST
Moon 12:08 AM EST (1/4) 11:45 AM EST (1/4)
Length of Visible Light 10h 09m
Length of Day
9h 04m
Waning Gibbous, 55% of the Moon is Illuminated
Jan 4
Waning Gibbous
Jan 4
Last Quarter
Jan 11
New
Jan 18
First Quarter
Jan 26
Full

Hourly Weather History & Observations

Time (EST) Temp. Windchill Dew Point Humidity Pressure Visibility Wind Dir Wind Speed Gust Speed Precip Events Conditions
12:15 AM 28.4 °F 19.7 °F 22.1 °F 77% 30.10 in 10.0 mi WSW 9.2 mph 17.3 mph N/A   Overcast
12:35 AM 28.4 °F 19.7 °F 22.1 °F 77% 30.09 in 10.0 mi SW 9.2 mph 20.7 mph N/A   Overcast
12:55 AM 27.5 °F 18.6 °F 22.1 °F 80% 30.07 in 10.0 mi SW 9.2 mph 16.1 mph N/A   Overcast
1:15 AM 27.5 °F 18.0 °F 22.1 °F 80% 30.07 in 10.0 mi SW 10.4 mph 17.3 mph N/A   Overcast
1:35 AM 27.9 °F 17.8 °F 22.1 °F 79% 30.07 in 10.0 mi SW 11.5 mph 17.3 mph N/A   Overcast
1:54 AM 27.9 °F 19.1 °F 22.1 °F 79% 30.07 in 10.0 mi WSW 9.2 mph 17.3 mph N/A   Overcast
2:15 AM 27.9 °F 18.4 °F 22.1 °F 79% 30.07 in 10.0 mi SW 10.4 mph 20.7 mph N/A   Overcast
2:34 AM 27.5 °F 18.6 °F 22.1 °F 80% 30.06 in 10.0 mi WSW 9.2 mph 17.3 mph N/A   Overcast
2:55 AM 26.8 °F 17.7 °F 21.6 °F 81% 30.06 in 10.0 mi SW 9.2 mph 19.6 mph N/A   Overcast
3:15 AM 26.4 °F 17.3 °F 21.2 °F 81% 30.06 in 10.0 mi SW 9.2 mph 18.4 mph N/A   Mostly Cloudy
3:35 AM 26.2 °F 15.8 °F 21.2 °F 81% 30.06 in 10.0 mi SW 11.5 mph 18.4 mph N/A   Overcast
3:55 AM 26.2 °F 15.2 °F 21.2 °F 81% 30.06 in 10.0 mi SW 12.7 mph 18.4 mph N/A   Overcast
4:14 AM 25.9 °F 14.3 °F 20.7 °F 81% 30.05 in 10.0 mi SW 13.8 mph 20.7 mph N/A   Overcast
4:35 AM 25.3 °F 14.7 °F 20.1 °F 81% 30.04 in 10.0 mi SW 11.5 mph 20.7 mph N/A   Mostly Cloudy
4:55 AM 24.8 °F 14.0 °F 19.9 °F 82% 30.03 in 10.0 mi SW 11.5 mph 20.7 mph N/A   Scattered Clouds
5:15 AM 24.4 °F 13.5 °F 19.4 °F 81% 30.03 in 10.0 mi SW 11.5 mph 18.4 mph N/A   Clear
5:35 AM 24.4 °F 13.0 °F 19.2 °F 81% 30.03 in 10.0 mi SW 12.7 mph 19.6 mph N/A   Clear
5:55 AM 24.4 °F 13.5 °F 18.5 °F 78% 30.03 in 10.0 mi SW 11.5 mph 17.3 mph N/A   Clear
6:35 AM 25.5 °F 14.9 °F 20.1 °F 80% 30.03 in 10.0 mi SW 11.5 mph 18.4 mph N/A   Overcast
6:55 AM 25.7 °F 13.5 °F 21.2 °F 83% 30.02 in 10.0 mi SW 15.0 mph 21.9 mph N/A   Overcast
7:15 AM 25.7 °F 14.0 °F 21.6 °F 84% 30.04 in 10.0 mi SW 13.8 mph 23.0 mph N/A   Overcast
7:34 AM 25.7 °F 14.0 °F 21.6 °F 84% 30.04 in 10.0 mi SW 13.8 mph 24.2 mph N/A   Overcast
8:15 AM 25.7 °F 14.0 °F 21.6 °F 84% 30.04 in 10.0 mi SW 13.8 mph 18.4 mph N/A   Overcast
8:35 AM 25.7 °F 13.5 °F 21.2 °F 83% 30.03 in 10.0 mi SW 15.0 mph 23.0 mph N/A   Overcast
8:55 AM 25.7 °F 13.1 °F 21.7 °F 85% 30.02 in 10.0 mi SSW 16.1 mph 23.0 mph N/A   Overcast
9:15 AM 25.7 °F 12.7 °F 21.7 °F 85% 30.01 in 10.0 mi SSW 17.3 mph 23.0 mph N/A   Overcast
9:35 AM 26.1 °F 13.6 °F 21.7 °F 84% 30.02 in 10.0 mi SW 16.1 mph 26.5 mph N/A   Overcast
9:55 AM 26.6 °F 13.8 °F 22.1 °F 83% 30.02 in 10.0 mi SW 17.3 mph 27.6 mph N/A   Overcast
10:14 AM 27.1 °F 15.4 °F 22.1 °F 81% 30.03 in 10.0 mi SW 15.0 mph 19.6 mph N/A   Overcast
10:35 AM 27.5 °F 16.3 °F 22.8 °F 83% 30.02 in 10.0 mi SSW 13.8 mph 23.0 mph N/A   Overcast
10:55 AM 27.9 °F 15.5 °F 23.0 °F 82% 30.03 in 10.0 mi SSW 17.3 mph 28.8 mph N/A   Overcast
11:15 AM 28.2 °F 16.8 °F 23.0 °F 81% 30.02 in 10.0 mi SW 15.0 mph 26.5 mph N/A   Overcast
11:35 AM 28.2 °F 16.8 °F 22.8 °F 80% 30.02 in 10.0 mi SW 15.0 mph 25.3 mph N/A   Overcast
11:54 AM 28.4 °F 16.2 °F 23.2 °F 81% 30.02 in 10.0 mi SW 17.3 mph 23.0 mph N/A   Overcast
12:15 PM 28.4 °F 17.0 °F 23.0 °F 80% 30.01 in 10.0 mi SW 15.0 mph 24.2 mph N/A   Overcast
12:35 PM 28.6 °F 17.2 °F 23.0 °F 80% 30.01 in 10.0 mi SW 15.0 mph 21.9 mph N/A   Overcast
12:55 PM 28.8 °F 17.5 °F 23.0 °F 79% 30.00 in 10.0 mi SW 15.0 mph 24.2 mph N/A   Overcast
1:15 PM 28.8 °F 19.5 °F 23.0 °F 79% 30.00 in 10.0 mi WSW 10.4 mph 20.7 mph N/A   Overcast
1:34 PM 28.9 °F 19.2 °F 22.5 °F 77% 30.00 in 10.0 mi WSW 11.5 mph - N/A   Overcast
1:55 PM 29.5 °F 19.3 °F 22.5 °F 75% 30.00 in 10.0 mi SW 12.7 mph 20.7 mph N/A   Overcast
2:15 PM 29.7 °F 20.1 °F 22.3 °F 74% 30.00 in 10.0 mi SW 11.5 mph 19.6 mph N/A   Overcast
2:35 PM 29.5 °F 18.0 °F 21.9 °F 73% 30.00 in 10.0 mi SW 16.1 mph 23.0 mph N/A   Overcast
2:54 PM 29.7 °F 18.6 °F 21.9 °F 73% 30.00 in 10.0 mi WSW 15.0 mph 21.9 mph N/A   Overcast
3:15 PM 29.7 °F 18.6 °F 21.7 °F 72% 30.00 in 10.0 mi SW 15.0 mph 18.4 mph N/A   Overcast
3:35 PM 30.0 °F 19.5 °F 21.9 °F 72% 30.02 in 10.0 mi WSW 13.8 mph 20.7 mph N/A   Overcast
3:54 PM 29.8 °F 19.3 °F 21.7 °F 72% 30.02 in 10.0 mi SW 13.8 mph 21.9 mph N/A   Overcast
4:15 PM 29.3 °F 18.6 °F 21.2 °F 72% 30.03 in 10.0 mi WSW 13.8 mph 18.4 mph N/A   Overcast
4:34 PM 29.7 °F 19.1 °F 21.6 °F 72% 30.03 in 10.0 mi SW 13.8 mph 18.4 mph N/A   Mostly Cloudy
4:55 PM 28.8 °F 19.0 °F 21.2 °F 73% 30.04 in 10.0 mi SW 11.5 mph 16.1 mph N/A   Scattered Clouds
5:15 PM 28.4 °F 21.2 °F 21.6 °F 76% 30.04 in 10.0 mi SW 6.9 mph - N/A   Scattered Clouds
5:34 PM 27.9 °F 20.6 °F 21.7 °F 78% 30.04 in 10.0 mi SW 6.9 mph - N/A   Clear
5:55 PM 27.9 °F 19.8 °F 21.9 °F 78% 30.05 in 10.0 mi SW 8.1 mph - N/A   Clear
6:15 PM 28.0 °F 20.0 °F 22.1 °F 78% 30.05 in 10.0 mi SW 8.1 mph - N/A   Clear
6:35 PM 27.5 °F 19.3 °F 22.1 °F 80% 30.05 in 10.0 mi SW 8.1 mph - N/A   Clear
6:55 PM 27.5 °F 21.1 °F 22.1 °F 80% 30.07 in 10.0 mi SW 5.8 mph - N/A   Clear
7:15 PM 27.5 °F 19.3 °F 22.6 °F 82% 30.08 in 10.0 mi SW 8.1 mph - N/A   Clear
7:34 PM 27.7 °F 20.4 °F 22.8 °F 82% 30.09 in 10.0 mi WSW 6.9 mph - N/A   Clear
7:55 PM 27.7 °F 21.3 °F 22.8 °F 82% 30.09 in 10.0 mi SW 5.8 mph - N/A   Clear
8:14 PM 27.3 °F 22.0 °F 22.8 °F 83% 30.10 in 10.0 mi WSW 4.6 mph - N/A   Clear
8:35 PM 27.5 °F 21.1 °F 23.4 °F 84% 30.10 in 10.0 mi SW 5.8 mph - N/A   Clear
8:54 PM 27.7 °F 22.4 °F 23.7 °F 85% 30.10 in 10.0 mi SW 4.6 mph - N/A   Clear
9:14 PM 27.7 °F 21.3 °F 23.7 °F 85% 30.10 in 10.0 mi WSW 5.8 mph - N/A   Clear
9:35 PM 27.5 °F 23.6 °F 23.9 °F 86% 30.10 in 10.0 mi SW 3.5 mph - N/A   Clear
9:55 PM 27.3 °F 22.0 °F 23.9 °F 87% 30.11 in 10.0 mi SW 4.6 mph - N/A   Clear
10:15 PM 27.3 °F 22.0 °F 23.9 °F 87% 30.11 in 10.0 mi SW 4.6 mph - N/A   Clear
10:34 PM 25.7 °F 20.1 °F 22.6 °F 88% 30.12 in 10.0 mi SSW 4.6 mph - N/A   Clear
10:55 PM 25.7 °F 21.5 °F 24.1 °F 94% 30.12 in 10.0 mi SW 3.5 mph - N/A   Clear
11:15 PM 26.6 °F 22.6 °F 24.8 °F 93% 30.13 in 10.0 mi SW 3.5 mph - N/A   Clear
11:35 PM 26.6 °F - 24.3 °F 91% 30.13 in 10.0 mi Calm Calm - N/A   Clear
11:55 PM 23.7 °F 17.8 °F 22.6 °F 96% 30.14 in 7.0 mi South 4.6 mph - N/A   Clear